COSMOS 1275 DEB, 27733

Orbit data source: Space-Track

COSMOS 1275 DEB, 27733 is space debris in LEO originally from a launch on Thu, 04 Jun 1981 UTC launched from the Plesetsk Missile And Space Complex (PKMTR). Debris objects in space refer to the collection of defunct objects orbiting the Earth. Examples of debris include non-operational satellites, rocket bodies, and fragments generated from explosions, collisions, or faulty payload assembly.

Loading next visibility...
Identifier
27733, 1981-053MN
Orbit
LEO
Country
Flag of CISCIS
Related business
Manufacturer
Unknown
Mission
Spacecraft
Bus & Motor
Unknown
Mass
Unknown
Launch date (UTC)
1981-06-04 (45 years ago)
Launch vehicle
Unknown
Launch site
Plesetsk Missile And Space Complex (PKMTR)
Object type
Payload
Rocket body
Debris
Shape & HBR
Unknown shape, 0.1 m
Radar Cross Section
Small (<0.1 m²)

Expand to show TLE details & history
Last TLE update: 3 days ago

TLE from 3 days ago
0 COSMOS 1275 DEB
1 27733U 81053MN  26219.52998265  .00001404  00000-0  62241-3 0  9992
2 27733  83.1114 142.7827 0024821 204.2147 155.7872 14.22328716374678
Epoch: 2026-08-07T12:43Z
TLE epoch observation values (Epoch: 2026-08-07T12:43:10.500Z)
Latitude
-0°
Longitude
-4.06541°
Altitude
836.758 km
Speed
7.426 km/s
True Right ascension
09h 31m 07s
True Declination
0° 00' 00"
Sunlit
Object was in daylight at epoch
Visualization orbit readout
Latitude
Unknown
Longitude
Unknown
Altitude
Unknown
Speed
Unknown
Apparent Right ascension
Unknown
Apparent Declination
Unknown
Sunlit
N/A
Visualization observer readout
Local Sidereal Time
15:37:35
Azimuth
Unknown
Elevation
Unknown
Doppler factor
Unknown
Orbital elements
Apogee altitude
832.418 km
Perigee altitude
796.712 km
Semi-major axis
7,192.702 km
Eccentricity
0.00248
Inclination
83.1114°
RAAN
142.7827°
Arg. of periapsis
204.2147°
True anomaly
155.90352°
Mean anomaly
155.7872°
Eccentric anomaly
155.84539°
Mean motion
3.55799 °/min
Orbital period
101.18 mins
BSTAR
0.00062241
Loading maneuver chart data...
Computing Atmospheric mass density...

Documentation

Showing up to 5 results
|